GEFSSE_prec_meanprecacc_018.txt.gz
Total_Precipitation_Accumulation
0.00 0.00 0.01 0.00 0.00 0.00 0.00 0.00 0.00 0.00 0.00 0.01 0.01 0.00 0.00 0.00 0.00 0.00 0.00 0.00 0.00 0.00 0.00 0.01 0.01 0.01 0.01 0.01 0.01 0.01 0.01 0.01 0.00 0.00 0.01 0.03 0.04 0.03 0.05 0.04 0.04 0.05 0.05
0.00 0.00 0.01 0.00 0.00 0.00 0.00 0.00 0.00 0.00 0.00 0.00 0.00 0.00 0.00 0.00 0.00 0.00 0.00 0.00 0.00 0.01 0.01 0.01 0.01 0.01 0.01 0.00 0.00 0.00 0.00 0.00 0.00 0.00 0.01 0.02 0.02 0.02 0.02 0.01 0.04 0.07 0.04
0.00 0.00 0.00 0.00 0.00 0.00 0.00 0.00 0.00 0.00 0.00 0.00 0.00 0.00 0.00 0.00 0.00 0.00 0.00 0.00 0.00 0.00 0.00 0.00 0.00 0.01 0.00 0.00 0.00 0.00 0.00 0.00 0.00 0.01 0.02 0.03 0.02 0.02 0.02 0.01 0.01 0.02 0.02
0.00 0.00 0.00 0.00 0.00 0.00 0.00 0.00 0.00 0.00 0.00 0.00 0.00 0.00 0.00 0.00 0.00 0.00 0.00 0.00 0.00 0.00 0.00 0.00 0.01 0.01 0.01 0.00 0.00 0.00 0.01 0.01 0.01 0.02 0.04 0.06 0.07 0.04 0.02 0.00 0.00 0.01 0.01
0.00 0.00 0.00 0.00 0.00 0.00 0.00 0.00 0.00 0.01 0.01 0.00 0.00 0.00 0.00 0.00 0.00 0.00 0.00 0.00 0.01 0.01 0.01 0.01 0.01 0.02 0.01 0.01 0.01 0.01 0.01 0.01 0.02 0.02 0.03 0.11 0.19 0.09 0.03 0.01 0.01 0.01 0.01
0.00 0.00 0.00 0.01 0.00 0.00 0.00 0.00 0.00 0.01 0.01 0.01 0.00 0.00 0.00 0.01 0.01 0.01 0.01 0.01 0.01 0.01 0.01 0.01 0.01 0.01 0.01 0.01 0.01 0.01 0.01 0.01 0.02 0.02 0.01 0.09 0.13 0.10 0.06 0.02 0.01 0.02 0.01
0.00 0.00 0.00 0.01 0.01 0.01 0.01 0.01 0.01 0.01 0.01 0.01 0.01 0.00 0.00 0.01 0.01 0.01 0.01 0.01 0.01 0.01 0.00 0.00 0.01 0.01 0.01 0.01 0.00 0.00 0.01 0.00 0.01 0.03 0.01 0.02 0.04 0.07 0.07 0.03 0.02 0.03 0.01
0.00 0.00 0.01 0.02 0.02 0.01 0.01 0.01 0.01 0.01 0.01 0.01 0.01 0.00 0.00 0.00 0.01 0.01 0.01 0.01 0.00 0.00 0.00 0.00 0.00 0.01 0.01 0.01 0.00 0.00 0.01 0.01 0.01 0.01 0.01 0.02 0.03 0.08 0.13 0.07 0.03 0.02 0.02
0.00 0.00 0.01 0.02 0.03 0.03 0.02 0.02 0.02 0.02 0.02 0.02 0.01 0.01 0.00 0.00 0.01 0.01 0.01 0.00 0.00 0.00 0.00 0.00 0.00 0.00 0.01 0.01 0.01 0.01 0.01 0.02 0.02 0.03 0.01 0.04 0.04 0.10 0.31 0.27 0.12 0.04 0.03
0.01 0.01 0.02 0.04 0.05 0.05 0.05 0.05 0.04 0.05 0.04 0.03 0.02 0.01 0.01 0.01 0.01 0.01 0.00 0.00 0.01 0.01 0.01 0.01 0.01 0.01 0.01 0.03 0.06 0.07 0.07 0.06 0.05 0.07 0.04 0.03 0.03 0.10 0.35 0.52 0.44 0.27 0.11
0.01 0.02 0.03 0.04 0.06 0.07 0.07 0.07 0.10 0.12 0.13 0.12 0.09 0.05 0.02 0.01 0.01 0.00 0.00 0.01 0.05 0.09 0.11 0.10 0.09 0.08 0.10 0.08 0.12 0.20 0.22 0.13 0.13 0.14 0.12 0.08 0.11 0.17 0.40 0.61 0.61 0.56 0.44
0.01 0.02 0.03 0.04 0.05 0.06 0.07 0.08 0.12 0.15 0.19 0.19 0.17 0.15 0.12 0.07 0.04 0.02 0.02 0.07 0.18 0.28 0.29 0.28 0.35 0.42 0.39 0.25 0.27 0.32 0.19 0.15 0.19 0.15 0.14 0.17 0.20 0.22 0.36 0.59 0.64 0.59 0.58
0.02 0.03 0.03 0.03 0.04 0.04 0.05 0.05 0.09 0.13 0.17 0.17 0.18 0.21 0.24 0.23 0.18 0.16 0.15 0.23 0.36 0.47 0.41 0.47 0.69 0.58 0.51 0.52 0.54 0.47 0.40 0.30 0.18 0.11 0.08 0.18 0.28 0.31 0.41 0.56 0.58 0.54 0.52
0.07 0.12 0.16 0.14 0.11 0.07 0.05 0.05 0.08 0.11 0.15 0.19 0.23 0.32 0.38 0.36 0.40 0.43 0.44 0.44 0.47 0.48 0.48 0.50 0.49 0.54 0.72 0.82 0.70 0.58 0.50 0.39 0.32 0.31 0.19 0.16 0.31 0.42 0.52 0.56 0.52 0.47 0.46
0.28 0.35 0.36 0.33 0.23 0.14 0.10 0.09 0.11 0.15 0.19 0.26 0.34 0.37 0.40 0.57 0.67 0.63 0.49 0.42 0.46 0.54 0.65 0.78 0.75 0.88 0.98 0.89 0.68 0.59 0.57 0.47 0.39 0.30 0.19 0.22 0.49 0.56 0.49 0.47 0.47 0.48 0.48
0.57 0.60 0.60 0.50 0.36 0.28 0.24 0.25 0.28 0.31 0.34 0.37 0.38 0.44 0.54 0.64 0.72 0.62 0.53 0.52 0.56 0.54 0.55 0.65 0.69 0.74 0.72 0.60 0.42 0.35 0.35 0.36 0.29 0.23 0.16 0.20 0.31 0.32 0.31 0.37 0.44 0.51 0.55
1.27 1.09 0.80 0.61 0.56 0.56 0.62 0.64 0.59 0.54 0.49 0.47 0.44 0.49 0.56 0.57 0.60 0.60 0.54 0.46 0.46 0.43 0.40 0.46 0.51 0.50 0.46 0.38 0.28 0.23 0.20 0.19 0.17 0.16 0.14 0.13 0.16 0.18 0.16 0.18 0.24 0.34 0.47
2.19 1.83 1.30 1.13 1.21 1.14 1.04 0.81 0.64 0.57 0.50 0.42 0.38 0.39 0.42 0.40 0.38 0.35 0.30 0.24 0.22 0.18 0.18 0.22 0.25 0.24 0.24 0.26 0.29 0.29 0.24 0.23 0.17 0.15 0.12 0.09 0.08 0.08 0.10 0.13 0.15 0.17 0.26
2.74 2.64 2.10 1.97 2.04 1.55 0.95 0.64 0.49 0.43 0.34 0.30 0.30 0.27 0.28 0.29 0.28 0.26 0.21 0.16 0.12 0.09 0.08 0.08 0.09 0.10 0.12 0.14 0.18 0.21 0.20 0.16 0.12 0.08 0.06 0.03 0.03 0.02 0.02 0.05 0.10 0.13 0.18
2.00 1.96 1.85 1.87 1.53 1.01 0.59 0.40 0.29 0.25 0.20 0.17 0.18 0.18 0.19 0.20 0.22 0.21 0.17 0.13 0.08 0.06 0.05 0.05 0.05 0.05 0.06 0.06 0.04 0.05 0.07 0.06 0.06 0.04 0.02 0.01 0.02 0.02 0.01 0.02 0.06 0.10 0.15
0.82 0.84 0.96 0.92 0.82 0.52 0.35 0.22 0.16 0.13 0.11 0.09 0.10 0.10 0.12 0.14 0.16 0.18 0.15 0.13 0.08 0.06 0.04 0.03 0.03 0.02 0.02 0.02 0.02 0.02 0.02 0.02 0.02 0.01 0.02 0.04 0.04 0.03 0.02 0.02 0.05 0.08 0.10
0.38 0.44 0.47 0.48 0.40 0.24 0.17 0.14 0.13 0.10 0.07 0.06 0.05 0.05 0.06 0.07 0.10 0.13 0.14 0.10 0.08 0.07 0.05 0.03 0.03 0.02 0.01 0.01 0.01 0.01 0.01 0.00 0.00 0.00 0.04 0.05 0.04 0.06 0.04 0.03 0.03 0.05 0.08
0.45 0.39 0.24 0.24 0.19 0.12 0.10 0.10 0.09 0.09 0.09 0.08 0.06 0.06 0.06 0.06 0.07 0.10 0.12 0.11 0.09 0.07 0.06 0.05 0.04 0.03 0.02 0.01 0.01 0.01 0.01 0.00 0.00 0.00 0.01 0.03 0.04 0.06 0.05 0.05 0.06 0.08 0.12
0.26 0.26 0.20 0.19 0.18 0.11 0.08 0.07 0.06 0.06 0.07 0.07 0.06 0.06 0.06 0.06 0.06 0.07 0.08 0.09 0.10 0.10 0.09 0.05 0.04 0.03 0.02 0.01 0.01 0.01 0.01 0.01 0.01 0.00 0.00 0.01 0.04 0.08 0.07 0.04 0.06 0.09 0.10
0.05 0.11 0.14 0.20 0.25 0.17 0.13 0.09 0.08 0.06 0.05 0.06 0.06 0.07 0.08 0.10 0.11 0.12 0.12 0.10 0.09 0.10 0.10 0.08 0.07 0.04 0.03 0.01 0.01 0.01 0.01 0.01 0.01 0.01 0.01 0.01 0.02 0.02 0.03 0.05 0.09 0.15 0.10
0.04 0.06 0.08 0.14 0.19 0.17 0.14 0.13 0.14 0.14 0.12 0.11 0.11 0.11 0.14 0.17 0.19 0.19 0.19 0.20 0.19 0.15 0.11 0.08 0.07 0.05 0.04 0.02 0.01 0.01 0.01 0.01 0.01 0.02 0.02 0.02 0.03 0.02 0.03 0.06 0.12 0.18 0.14

GEFSSE_prec_meanprecacc_024.txt.gz
Total_Precipitation_Accumulation
0.00 0.00 0.01 0.00 0.00 0.00 0.00 0.00 0.00 0.00 0.00 0.02 0.02 0.02 0.01 0.01 0.00 0.00 0.00 0.00 0.00 0.00 0.00 0.01 0.01 0.01 0.01 0.01 0.01 0.01 0.01 0.01 0.00 0.00 0.01 0.03 0.04 0.03 0.05 0.05 0.12 0.15 0.12
0.00 0.00 0.01 0.00 0.00 0.00 0.00 0.00 0.00 0.00 0.00 0.01 0.02 0.03 0.03 0.02 0.01 0.01 0.00 0.00 0.00 0.01 0.01 0.01 0.01 0.01 0.01 0.00 0.00 0.00 0.00 0.00 0.00 0.00 0.01 0.02 0.02 0.02 0.03 0.04 0.13 0.18 0.08
0.00 0.00 0.00 0.00 0.00 0.00 0.00 0.00 0.00 0.00 0.00 0.01 0.01 0.02 0.02 0.01 0.01 0.00 0.00 0.00 0.00 0.00 0.01 0.01 0.01 0.01 0.01 0.00 0.00 0.00 0.00 0.00 0.00 0.01 0.05 0.09 0.03 0.02 0.02 0.03 0.06 0.05 0.03
0.00 0.00 0.00 0.00 0.00 0.00 0.00 0.00 0.00 0.00 0.00 0.00 0.00 0.00 0.00 0.00 0.00 0.00 0.00 0.00 0.00 0.01 0.01 0.01 0.01 0.01 0.01 0.00 0.00 0.01 0.01 0.01 0.01 0.03 0.17 0.17 0.11 0.04 0.02 0.01 0.00 0.01 0.02
0.00 0.00 0.00 0.00 0.00 0.00 0.00 0.00 0.00 0.01 0.01 0.01 0.00 0.00 0.00 0.00 0.00 0.00 0.01 0.01 0.01 0.02 0.02 0.01 0.02 0.02 0.01 0.01 0.01 0.01 0.01 0.01 0.02 0.04 0.11 0.19 0.32 0.12 0.03 0.01 0.01 0.01 0.01
0.00 0.00 0.00 0.01 0.00 0.00 0.00 0.00 0.00 0.01 0.01 0.01 0.01 0.00 0.01 0.01 0.01 0.01 0.01 0.01 0.02 0.03 0.02 0.01 0.02 0.02 0.01 0.01 0.01 0.01 0.01 0.01 0.02 0.04 0.05 0.13 0.23 0.14 0.06 0.02 0.01 0.02 0.01
0.00 0.00 0.00 0.01 0.01 0.01 0.01 0.01 0.01 0.01 0.01 0.01 0.01 0.01 0.01 0.01 0.01 0.01 0.01 0.02 0.02 0.03 0.02 0.01 0.01 0.01 0.01 0.01 0.00 0.00 0.01 0.00 0.01 0.05 0.03 0.04 0.09 0.09 0.07 0.03 0.02 0.03 0.02
0.00 0.00 0.01 0.02 0.02 0.01 0.01 0.01 0.01 0.01 0.01 0.01 0.01 0.00 0.00 0.01 0.01 0.01 0.01 0.01 0.01 0.02 0.01 0.01 0.00 0.01 0.01 0.01 0.01 0.00 0.01 0.01 0.01 0.01 0.02 0.04 0.05 0.09 0.13 0.07 0.03 0.03 0.02
0.00 0.00 0.01 0.02 0.03 0.03 0.02 0.02 0.02 0.02 0.02 0.02 0.01 0.01 0.01 0.01 0.01 0.01 0.01 0.01 0.01 0.01 0.01 0.00 0.00 0.00 0.01 0.01 0.01 0.01 0.01 0.02 0.02 0.03 0.01 0.04 0.05 0.11 0.32 0.28 0.13 0.05 0.03
0.01 0.01 0.02 0.04 0.05 0.06 0.05 0.05 0.04 0.05 0.04 0.03 0.02 0.01 0.01 0.01 0.01 0.01 0.00 0.00 0.01 0.01 0.01 0.01 0.01 0.01 0.01 0.03 0.06 0.07 0.07 0.06 0.05 0.07 0.04 0.03 0.05 0.12 0.37 0.54 0.47 0.31 0.15
0.01 0.02 0.03 0.04 0.06 0.07 0.08 0.10 0.12 0.13 0.13 0.12 0.09 0.05 0.02 0.01 0.01 0.01 0.00 0.01 0.05 0.09 0.11 0.11 0.10 0.09 0.10 0.09 0.13 0.21 0.23 0.14 0.13 0.14 0.12 0.10 0.14 0.20 0.42 0.63 0.65 0.63 0.53
0.01 0.02 0.03 0.04 0.05 0.06 0.09 0.22 0.29 0.28 0.31 0.26 0.26 0.24 0.17 0.11 0.07 0.04 0.04 0.12 0.22 0.31 0.31 0.30 0.37 0.45 0.42 0.29 0.33 0.39 0.20 0.15 0.19 0.15 0.15 0.19 0.22 0.25 0.38 0.62 0.67 0.64 0.65
0.02 0.03 0.03 0.04 0.04 0.05 0.09 0.19 0.33 0.37 0.44 0.42 0.46 0.49 0.51 0.48 0.33 0.25 0.28 0.44 0.51 0.58 0.50 0.58 0.78 0.64 0.58 0.61 0.68 0.63 0.47 0.32 0.19 0.11 0.09 0.21 0.30 0.33 0.43 0.59 0.61 0.58 0.57
0.07 0.12 0.16 0.15 0.12 0.09 0.11 0.18 0.25 0.28 0.35 0.43 0.54 0.65 0.73 0.68 0.68 0.66 0.67 0.72 0.74 0.74 0.74 0.74 0.74 0.75 0.92 1.02 0.89 0.76 0.67 0.50 0.36 0.32 0.25 0.27 0.38 0.47 0.55 0.59 0.56 0.51 0.51
0.29 0.37 0.38 0.33 0.25 0.17 0.16 0.17 0.19 0.26 0.33 0.44 0.57 0.62 0.71 0.89 0.99 0.97 0.81 0.75 0.75 0.83 0.98 1.13 1.08 1.21 1.30 1.17 0.90 0.77 0.74 0.63 0.47 0.35 0.28 0.35 0.58 0.63 0.55 0.51 0.51 0.51 0.53
0.59 0.63 0.62 0.52 0.38 0.32 0.30 0.31 0.35 0.39 0.44 0.50 0.54 0.64 0.81 0.93 1.04 0.99 0.95 0.94 0.94 0.90 0.95 1.19 1.23 1.20 1.08 0.90 0.63 0.51 0.50 0.51 0.44 0.34 0.24 0.31 0.43 0.41 0.39 0.45 0.51 0.58 0.61
1.30 1.13 0.84 0.65 0.59 0.60 0.67 0.69 0.65 0.60 0.56 0.58 0.58 0.65 0.74 0.80 0.88 0.90 0.88 0.84 0.86 0.85 0.83 0.89 0.98 0.99 0.82 0.64 0.50 0.44 0.39 0.39 0.37 0.38 0.30 0.28 0.32 0.35 0.27 0.26 0.31 0.42 0.55
2.23 1.87 1.33 1.15 1.24 1.17 1.07 0.84 0.68 0.61 0.55 0.49 0.46 0.47 0.51 0.53 0.54 0.56 0.54 0.51 0.54 0.52 0.53 0.58 0.62 0.64 0.60 0.56 0.56 0.53 0.47 0.47 0.40 0.43 0.41 0.35 0.32 0.33 0.37 0.27 0.23 0.24 0.32
2.76 2.66 2.12 1.99 2.05 1.56 0.98 0.67 0.52 0.46 0.38 0.34 0.36 0.33 0.34 0.36 0.37 0.40 0.38 0.36 0.35 0.33 0.33 0.34 0.39 0.43 0.44 0.44 0.41 0.40 0.37 0.34 0.30 0.28 0.30 0.22 0.19 0.18 0.26 0.33 0.26 0.23 0.24
2.01 1.97 1.86 1.87 1.53 1.02 0.60 0.41 0.30 0.27 0.23 0.21 0.24 0.25 0.26 0.29 0.31 0.34 0.31 0.29 0.27 0.24 0.25 0.29 0.30 0.31 0.30 0.30 0.21 0.19 0.22 0.17 0.16 0.13 0.13 0.10 0.10 0.10 0.14 0.23 0.21 0.16 0.18
0.82 0.84 0.96 0.93 0.82 0.52 0.36 0.23 0.16 0.14 0.13 0.13 0.16 0.15 0.19 0.23 0.27 0.33 0.27 0.29 0.26 0.21 0.20 0.21 0.21 0.21 0.19 0.17 0.16 0.12 0.09 0.08 0.08 0.06 0.05 0.07 0.07 0.08 0.09 0.13 0.12 0.11 0.12
0.38 0.44 0.47 0.48 0.40 0.24 0.17 0.15 0.13 0.11 0.08 0.07 0.07 0.09 0.09 0.12 0.17 0.23 0.30 0.24 0.23 0.22 0.20 0.17 0.17 0.16 0.14 0.13 0.13 0.10 0.06 0.05 0.05 0.02 0.06 0.06 0.06 0.10 0.09 0.07 0.05 0.07 0.09
0.45 0.39 0.24 0.24 0.19 0.12 0.10 0.10 0.09 0.09 0.09 0.09 0.07 0.07 0.08 0.07 0.09 0.14 0.21 0.23 0.25 0.21 0.23 0.24 0.20 0.17 0.12 0.09 0.08 0.08 0.06 0.04 0.03 0.02 0.03 0.03 0.04 0.08 0.08 0.07 0.07 0.09 0.12
0.26 0.26 0.20 0.19 0.18 0.11 0.08 0.07 0.06 0.06 0.07 0.07 0.07 0.06 0.06 0.06 0.07 0.08 0.10 0.15 0.22 0.24 0.30 0.21 0.20 0.19 0.15 0.09 0.07 0.06 0.04 0.04 0.05 0.05 0.04 0.01 0.05 0.09 0.07 0.04 0.07 0.10 0.10
0.05 0.11 0.14 0.20 0.25 0.17 0.13 0.09 0.08 0.06 0.05 0.06 0.06 0.07 0.08 0.10 0.11 0.12 0.12 0.11 0.12 0.18 0.26 0.28 0.31 0.24 0.21 0.14 0.09 0.07 0.07 0.04 0.03 0.04 0.06 0.05 0.05 0.03 0.03 0.05 0.09 0.15 0.10
0.04 0.06 0.08 0.14 0.19 0.17 0.14 0.13 0.14 0.14 0.13 0.11 0.11 0.11 0.14 0.17 0.19 0.19 0.19 0.20 0.19 0.17 0.17 0.19 0.23 0.27 0.28 0.25 0.15 0.08 0.08 0.06 0.03 0.03 0.03 0.05 0.09 0.04 0.04 0.06 0.12 0.18 0.14

GEFSSE_prec_meanprecacc_030.txt.gz
Total_Precipitation_Accumulation
0.00 0.00 0.01 0.00 0.00 0.00 0.00 0.00 0.00 0.00 0.00 0.02 0.02 0.02 0.01 0.01 0.00 0.00 0.00 0.00 0.00 0.00 0.00 0.01 0.01 0.01 0.01 0.01 0.01 0.01 0.01 0.01 0.01 0.01 0.03 0.05 0.04 0.03 0.06 0.07 0.17 0.18 0.18
0.00 0.00 0.01 0.00 0.00 0.00 0.00 0.00 0.00 0.00 0.00 0.01 0.02 0.03 0.03 0.02 0.01 0.01 0.00 0.00 0.00 0.01 0.01 0.01 0.01 0.01 0.01 0.00 0.00 0.00 0.00 0.00 0.00 0.01 0.03 0.04 0.05 0.05 0.05 0.08 0.16 0.22 0.13
0.00 0.00 0.00 0.00 0.00 0.00 0.00 0.00 0.00 0.00 0.00 0.01 0.01 0.02 0.02 0.01 0.01 0.00 0.00 0.00 0.00 0.01 0.01 0.01 0.01 0.01 0.01 0.00 0.00 0.00 0.00 0.00 0.01 0.02 0.05 0.09 0.05 0.06 0.05 0.05 0.08 0.09 0.06
0.00 0.00 0.00 0.00 0.00 0.00 0.00 0.00 0.00 0.00 0.00 0.00 0.01 0.01 0.01 0.00 0.00 0.00 0.00 0.00 0.00 0.01 0.01 0.01 0.01 0.01 0.01 0.00 0.00 0.01 0.01 0.01 0.01 0.03 0.18 0.18 0.11 0.05 0.02 0.01 0.01 0.02 0.03
0.00 0.00 0.00 0.00 0.00 0.00 0.00 0.00 0.00 0.01 0.01 0.01 0.01 0.00 0.01 0.01 0.00 0.00 0.01 0.01 0.01 0.02 0.02 0.02 0.02 0.02 0.01 0.01 0.01 0.01 0.01 0.01 0.02 0.04 0.13 0.21 0.32 0.12 0.03 0.01 0.01 0.01 0.01
0.00 0.00 0.00 0.01 0.00 0.00 0.00 0.00 0.00 0.01 0.01 0.01 0.01 0.00 0.01 0.01 0.01 0.01 0.01 0.01 0.02 0.03 0.02 0.02 0.02 0.02 0.02 0.01 0.01 0.01 0.01 0.01 0.02 0.05 0.09 0.16 0.24 0.15 0.06 0.02 0.01 0.02 0.01
0.00 0.00 0.00 0.01 0.01 0.01 0.01 0.01 0.01 0.01 0.01 0.01 0.01 0.01 0.01 0.01 0.01 0.02 0.02 0.02 0.02 0.03 0.02 0.01 0.01 0.02 0.01 0.01 0.00 0.00 0.01 0.01 0.02 0.07 0.09 0.10 0.12 0.12 0.07 0.03 0.02 0.03 0.02
0.00 0.00 0.01 0.02 0.02 0.01 0.01 0.01 0.01 0.01 0.01 0.01 0.01 0.01 0.00 0.01 0.01 0.02 0.02 0.01 0.02 0.02 0.02 0.01 0.01 0.01 0.01 0.01 0.01 0.00 0.01 0.01 0.01 0.03 0.06 0.10 0.08 0.13 0.15 0.07 0.03 0.03 0.02
0.00 0.01 0.01 0.02 0.03 0.03 0.02 0.02 0.02 0.02 0.02 0.02 0.01 0.01 0.01 0.01 0.01 0.01 0.01 0.01 0.01 0.02 0.02 0.01 0.01 0.01 0.01 0.01 0.01 0.01 0.01 0.02 0.03 0.04 0.04 0.09 0.10 0.19 0.37 0.30 0.14 0.05 0.03
0.02 0.02 0.02 0.04 0.05 0.06 0.05 0.05 0.04 0.05 0.04 0.03 0.02 0.01 0.01 0.01 0.01 0.01 0.01 0.01 0.02 0.03 0.03 0.03 0.03 0.02 0.02 0.04 0.07 0.07 0.08 0.06 0.05 0.07 0.06 0.07 0.13 0.24 0.45 0.57 0.48 0.31 0.15
0.04 0.04 0.04 0.05 0.07 0.09 0.10 0.11 0.13 0.13 0.13 0.12 0.09 0.05 0.03 0.01 0.01 0.01 0.01 0.03 0.07 0.13 0.16 0.16 0.15 0.14 0.15 0.12 0.16 0.23 0.23 0.14 0.13 0.14 0.13 0.13 0.23 0.34 0.53 0.70 0.68 0.64 0.53
0.05 0.05 0.06 0.07 0.10 0.13 0.14 0.28 0.32 0.30 0.34 0.28 0.27 0.25 0.18 0.12 0.08 0.05 0.07 0.18 0.30 0.41 0.44 0.42 0.49 0.57 0.52 0.36 0.40 0.44 0.22 0.16 0.19 0.15 0.15 0.21 0.31 0.39 0.51 0.73 0.74 0.67 0.66
0.08 0.07 0.07 0.08 0.09 0.10 0.13 0.25 0.40 0.43 0.50 0.49 0.51 0.54 0.56 0.53 0.38 0.30 0.35 0.56 0.68 0.80 0.74 0.83 1.04 0.86 0.77 0.76 0.80 0.73 0.54 0.38 0.22 0.13 0.10 0.25 0.39 0.47 0.59 0.72 0.71 0.65 0.60
0.16 0.19 0.22 0.20 0.18 0.15 0.16 0.23 0.31 0.35 0.44 0.53 0.63 0.76 0.85 0.78 0.76 0.73 0.75 0.83 0.93 1.00 1.07 1.13 1.13 1.09 1.21 1.26 1.12 0.96 0.82 0.62 0.45 0.40 0.34 0.41 0.56 0.68 0.75 0.74 0.66 0.59 0.55
0.37 0.45 0.47 0.43 0.34 0.25 0.21 0.20 0.23 0.30 0.38 0.51 0.65 0.71 0.80 0.96 1.05 1.02 0.87 0.83 0.87 1.01 1.21 1.43 1.44 1.61 1.68 1.50 1.21 1.04 0.99 0.86 0.71 0.57 0.51 0.64 0.90 0.87 0.76 0.71 0.65 0.60 0.58
0.71 0.76 0.75 0.65 0.49 0.39 0.35 0.34 0.38 0.42 0.48 0.53 0.57 0.68 0.85 0.96 1.08 1.03 0.99 1.01 1.02 0.99 1.07 1.40 1.57 1.67 1.57 1.33 1.01 0.87 0.84 0.83 0.74 0.66 0.54 0.59 0.76 0.69 0.60 0.64 0.67 0.69 0.70
1.45 1.28 0.96 0.78 0.68 0.65 0.70 0.71 0.66 0.61 0.58 0.60 0.60 0.67 0.76 0.82 0.91 0.93 0.91 0.88 0.92 0.92 0.91 1.02 1.16 1.27 1.17 1.02 0.87 0.82 0.80 0.77 0.70 0.67 0.62 0.58 0.59 0.65 0.55 0.49 0.52 0.58 0.67
2.33 1.98 1.44 1.25 1.30 1.21 1.10 0.85 0.69 0.62 0.55 0.50 0.48 0.49 0.53 0.54 0.56 0.57 0.56 0.53 0.56 0.55 0.58 0.65 0.72 0.79 0.82 0.85 0.87 0.84 0.77 0.78 0.72 0.73 0.67 0.60 0.59 0.60 0.65 0.55 0.46 0.43 0.47
2.81 2.71 2.17 2.02 2.07 1.57 0.98 0.67 0.52 0.47 0.38 0.35 0.37 0.35 0.37 0.39 0.39 0.42 0.40 0.38 0.37 0.34 0.35 0.36 0.43 0.53 0.59 0.65 0.65 0.62 0.59 0.54 0.50 0.51 0.53 0.43 0.42 0.42 0.47 0.53 0.49 0.40 0.40
2.03 1.98 1.87 1.88 1.53 1.02 0.60 0.41 0.30 0.27 0.23 0.21 0.25 0.27 0.28 0.31 0.32 0.36 0.33 0.32 0.28 0.26 0.27 0.31 0.35 0.38 0.39 0.41 0.36 0.35 0.39 0.31 0.29 0.25 0.24 0.22 0.23 0.23 0.27 0.38 0.38 0.30 0.34
0.82 0.84 0.96 0.93 0.82 0.52 0.36 0.23 0.16 0.14 0.13 0.13 0.16 0.16 0.19 0.23 0.28 0.34 0.29 0.31 0.29 0.23 0.23 0.24 0.26 0.27 0.25 0.24 0.23 0.20 0.16 0.15 0.15 0.12 0.10 0.12 0.16 0.18 0.20 0.28 0.30 0.24 0.22
0.38 0.44 0.47 0.48 0.40 0.24 0.17 0.15 0.13 0.11 0.08 0.07 0.07 0.09 0.09 0.12 0.17 0.23 0.30 0.25 0.25 0.25 0.24 0.23 0.24 0.22 0.19 0.20 0.22 0.18 0.12 0.09 0.10 0.08 0.11 0.11 0.12 0.20 0.25 0.25 0.21 0.19 0.17
0.45 0.39 0.24 0.24 0.19 0.12 0.10 0.10 0.09 0.09 0.09 0.09 0.07 0.07 0.08 0.07 0.09 0.14 0.21 0.24 0.27 0.24 0.27 0.31 0.28 0.24 0.18 0.15 0.18 0.19 0.13 0.07 0.07 0.08 0.10 0.11 0.11 0.17 0.21 0.25 0.23 0.20 0.19
0.26 0.26 0.20 0.19 0.18 0.11 0.08 0.07 0.06 0.06 0.07 0.07 0.07 0.06 0.07 0.06 0.07 0.08 0.10 0.15 0.22 0.26 0.33 0.25 0.28 0.28 0.23 0.16 0.15 0.14 0.12 0.11 0.10 0.09 0.11 0.09 0.12 0.16 0.14 0.14 0.18 0.20 0.17
0.05 0.11 0.14 0.20 0.25 0.17 0.13 0.09 0.08 0.06 0.05 0.06 0.06 0.07 0.08 0.10 0.11 0.12 0.12 0.11 0.12 0.19 0.26 0.29 0.35 0.31 0.30 0.25 0.19 0.16 0.15 0.12 0.10 0.08 0.09 0.09 0.10 0.07 0.06 0.08 0.12 0.19 0.13
0.04 0.06 0.08 0.14 0.19 0.17 0.14 0.13 0.14 0.14 0.13 0.11 0.11 0.11 0.14 0.17 0.19 0.19 0.20 0.20 0.19 0.17 0.17 0.19 0.23 0.29 0.33 0.33 0.25 0.19 0.21 0.18 0.12 0.09 0.05 0.07 0.12 0.07 0.07 0.08 0.13 0.19 0.16

GEFSSE_prec_meanprecacc_036.txt.gz
Total_Precipitation_Accumulation
0.00 0.00 0.01 0.00 0.00 0.00 0.00 0.00 0.00 0.00 0.00 0.02 0.03 0.02 0.01 0.01 0.00 0.00 0.00 0.00 0.00 0.00 0.00 0.01 0.02 0.02 0.02 0.02 0.02 0.02 0.02 0.02 0.01 0.02 0.04 0.06 0.05 0.05 0.09 0.13 0.22 0.22 0.31
0.00 0.00 0.01 0.00 0.00 0.00 0.00 0.00 0.00 0.00 0.00 0.01 0.03 0.03 0.03 0.02 0.01 0.01 0.00 0.00 0.00 0.01 0.01 0.01 0.01 0.02 0.01 0.01 0.01 0.00 0.00 0.00 0.01 0.02 0.06 0.07 0.10 0.09 0.09 0.12 0.20 0.26 0.20
0.00 0.00 0.01 0.00 0.00 0.00 0.00 0.00 0.00 0.00 0.00 0.01 0.01 0.02 0.02 0.01 0.01 0.00 0.00 0.00 0.00 0.01 0.01 0.01 0.01 0.01 0.01 0.00 0.00 0.00 0.00 0.01 0.02 0.03 0.08 0.11 0.10 0.14 0.08 0.08 0.10 0.11 0.08
0.00 0.00 0.00 0.00 0.00 0.00 0.00 0.00 0.00 0.01 0.01 0.01 0.01 0.01 0.01 0.00 0.00 0.00 0.00 0.00 0.01 0.01 0.01 0.02 0.02 0.01 0.01 0.00 0.00 0.01 0.01 0.01 0.02 0.04 0.18 0.19 0.12 0.07 0.04 0.02 0.02 0.03 0.04
0.00 0.00 0.00 0.01 0.00 0.00 0.00 0.00 0.00 0.01 0.01 0.01 0.01 0.01 0.01 0.01 0.01 0.01 0.01 0.01 0.01 0.02 0.03 0.03 0.03 0.03 0.02 0.01 0.01 0.01 0.02 0.02 0.04 0.05 0.13 0.21 0.33 0.14 0.03 0.01 0.02 0.02 0.02
0.00 0.00 0.00 0.01 0.01 0.00 0.00 0.00 0.01 0.01 0.01 0.01 0.01 0.01 0.01 0.01 0.01 0.01 0.01 0.02 0.03 0.05 0.04 0.05 0.05 0.04 0.02 0.01 0.01 0.01 0.01 0.03 0.05 0.07 0.10 0.16 0.25 0.16 0.06 0.02 0.01 0.03 0.02
0.00 0.00 0.00 0.01 0.01 0.01 0.01 0.01 0.01 0.01 0.02 0.01 0.01 0.01 0.01 0.01 0.02 0.02 0.02 0.02 0.03 0.04 0.04 0.05 0.05 0.05 0.03 0.01 0.00 0.01 0.01 0.02 0.05 0.10 0.12 0.11 0.13 0.14 0.08 0.04 0.03 0.04 0.02
0.00 0.00 0.01 0.02 0.02 0.01 0.01 0.01 0.01 0.01 0.01 0.02 0.01 0.01 0.01 0.02 0.02 0.03 0.03 0.03 0.03 0.04 0.04 0.04 0.05 0.05 0.04 0.02 0.01 0.01 0.02 0.04 0.04 0.05 0.11 0.15 0.11 0.18 0.18 0.08 0.04 0.03 0.02
0.01 0.01 0.01 0.03 0.03 0.03 0.02 0.02 0.02 0.02 0.02 0.02 0.02 0.01 0.01 0.02 0.02 0.03 0.03 0.03 0.03 0.04 0.05 0.05 0.05 0.05 0.05 0.04 0.03 0.03 0.03 0.06 0.06 0.07 0.08 0.15 0.15 0.27 0.45 0.34 0.15 0.05 0.03
0.02 0.02 0.02 0.04 0.05 0.06 0.05 0.05 0.05 0.05 0.05 0.03 0.02 0.02 0.02 0.02 0.02 0.03 0.03 0.03 0.04 0.06 0.08 0.10 0.10 0.10 0.10 0.10 0.11 0.11 0.11 0.11 0.09 0.10 0.09 0.11 0.17 0.33 0.57 0.67 0.52 0.33 0.15
0.05 0.05 0.05 0.06 0.08 0.10 0.10 0.11 0.14 0.14 0.14 0.13 0.09 0.05 0.03 0.02 0.01 0.01 0.02 0.05 0.10 0.17 0.23 0.27 0.28 0.29 0.29 0.23 0.23 0.28 0.28 0.18 0.17 0.16 0.15 0.16 0.28 0.45 0.67 0.85 0.78 0.70 0.55
0.11 0.11 0.12 0.12 0.14 0.16 0.16 0.31 0.36 0.34 0.37 0.31 0.30 0.26 0.19 0.14 0.09 0.06 0.09 0.21 0.35 0.50 0.60 0.63 0.74 0.81 0.72 0.52 0.52 0.54 0.28 0.20 0.22 0.17 0.16 0.23 0.35 0.48 0.67 0.91 0.91 0.80 0.72
0.20 0.17 0.17 0.18 0.19 0.20 0.23 0.34 0.49 0.51 0.54 0.52 0.54 0.57 0.59 0.56 0.42 0.35 0.41 0.63 0.77 0.94 0.93 1.05 1.29 1.08 0.97 0.93 0.92 0.81 0.59 0.43 0.25 0.15 0.12 0.27 0.43 0.56 0.74 0.91 0.91 0.83 0.75
0.28 0.31 0.36 0.38 0.37 0.36 0.38 0.39 0.44 0.44 0.50 0.58 0.68 0.81 0.90 0.84 0.83 0.79 0.82 0.91 1.01 1.10 1.19 1.28 1.29 1.26 1.37 1.40 1.21 1.04 0.88 0.66 0.48 0.43 0.37 0.44 0.60 0.75 0.89 0.94 0.88 0.81 0.76
0.52 0.61 0.65 0.65 0.60 0.51 0.40 0.36 0.36 0.40 0.45 0.56 0.68 0.75 0.84 1.02 1.11 1.08 0.93 0.89 0.92 1.06 1.28 1.52 1.56 1.75 1.81 1.60 1.28 1.10 1.04 0.91 0.75 0.61 0.54 0.69 0.97 0.96 0.88 0.89 0.86 0.84 0.82
0.90 0.96 0.97 0.89 0.73 0.66 0.56 0.47 0.48 0.49 0.53 0.56 0.59 0.70 0.87 0.98 1.12 1.07 1.03 1.06 1.06 1.02 1.11 1.44 1.63 1.75 1.67 1.42 1.08 0.93 0.89 0.87 0.78 0.71 0.58 0.64 0.85 0.79 0.72 0.80 0.88 0.93 0.94
1.65 1.48 1.17 0.96 0.84 0.78 0.79 0.76 0.69 0.64 0.59 0.60 0.60 0.67 0.76 0.83 0.92 0.95 0.93 0.90 0.93 0.94 0.94 1.04 1.19 1.31 1.23 1.08 0.93 0.90 0.88 0.84 0.75 0.71 0.66 0.62 0.64 0.73 0.67 0.65 0.71 0.80 0.91
2.46 2.11 1.55 1.34 1.38 1.26 1.12 0.87 0.69 0.62 0.56 0.50 0.48 0.49 0.53 0.55 0.57 0.59 0.58 0.55 0.57 0.56 0.59 0.67 0.74 0.82 0.85 0.88 0.91 0.90 0.85 0.86 0.78 0.79 0.73 0.65 0.64 0.64 0.73 0.69 0.67 0.68 0.75
2.89 2.78 2.22 2.06 2.10 1.58 0.98 0.67 0.52 0.47 0.38 0.35 0.37 0.35 0.37 0.39 0.40 0.43 0.41 0.40 0.38 0.36 0.36 0.38 0.45 0.54 0.61 0.66 0.66 0.65 0.63 0.59 0.55 0.55 0.58 0.48 0.46 0.45 0.52 0.62 0.66 0.64 0.70
2.05 2.00 1.88 1.88 1.53 1.02 0.60 0.41 0.30 0.27 0.23 0.21 0.25 0.27 0.28 0.31 0.33 0.36 0.33 0.32 0.29 0.27 0.28 0.33 0.36 0.39 0.40 0.43 0.38 0.36 0.40 0.33 0.31 0.28 0.27 0.27 0.27 0.26 0.31 0.43 0.47 0.45 0.54
0.82 0.84 0.96 0.93 0.82 0.52 0.36 0.23 0.16 0.14 0.13 0.13 0.16 0.16 0.19 0.23 0.28 0.34 0.29 0.31 0.29 0.23 0.23 0.25 0.28 0.29 0.27 0.27 0.26 0.21 0.17 0.16 0.16 0.13 0.12 0.15 0.19 0.21 0.23 0.32 0.34 0.31 0.31
0.38 0.44 0.47 0.48 0.40 0.24 0.17 0.15 0.13 0.11 0.08 0.07 0.07 0.09 0.09 0.12 0.17 0.23 0.30 0.25 0.25 0.25 0.24 0.23 0.25 0.23 0.21 0.23 0.25 0.21 0.13 0.10 0.10 0.08 0.12 0.12 0.14 0.23 0.27 0.28 0.25 0.23 0.23
0.45 0.39 0.24 0.24 0.19 0.12 0.10 0.10 0.09 0.09 0.09 0.09 0.07 0.07 0.08 0.07 0.09 0.14 0.21 0.24 0.27 0.24 0.27 0.31 0.28 0.25 0.19 0.19 0.23 0.25 0.16 0.08 0.08 0.09 0.11 0.12 0.13 0.19 0.23 0.28 0.27 0.24 0.25
0.26 0.26 0.20 0.19 0.18 0.11 0.08 0.07 0.06 0.06 0.07 0.07 0.07 0.06 0.07 0.06 0.07 0.08 0.10 0.15 0.22 0.26 0.33 0.25 0.28 0.28 0.23 0.18 0.19 0.20 0.17 0.15 0.13 0.10 0.12 0.11 0.15 0.19 0.18 0.18 0.22 0.24 0.23
0.05 0.11 0.14 0.20 0.25 0.17 0.13 0.09 0.08 0.06 0.05 0.06 0.06 0.07 0.08 0.10 0.11 0.12 0.12 0.11 0.12 0.19 0.26 0.29 0.35 0.31 0.30 0.26 0.20 0.18 0.18 0.16 0.14 0.10 0.09 0.10 0.12 0.10 0.10 0.12 0.16 0.23 0.18
0.04 0.06 0.08 0.14 0.19 0.17 0.14 0.13 0.14 0.14 0.13 0.11 0.11 0.11 0.14 0.17 0.19 0.19 0.20 0.20 0.19 0.17 0.17 0.19 0.23 0.29 0.33 0.33 0.25 0.20 0.22 0.20 0.15 0.12 0.07 0.07 0.12 0.09 0.09 0.11 0.17 0.22 0.19

GEFSSE_prec_meanprecacc_042.txt.gz
Total_Precipitation_Accumulation
0.00 0.00 0.01 0.00 0.00 0.00 0.00 0.01 0.02 0.03 0.03 0.05 0.05 0.04 0.02 0.01 0.01 0.00 0.00 0.00 0.00 0.00 0.00 0.01 0.02 0.02 0.03 0.03 0.02 0.02 0.02 0.02 0.01 0.02 0.05 0.07 0.08 0.09 0.16 0.21 0.32 0.38 0.42
0.00 0.00 0.01 0.00 0.00 0.00 0.00 0.01 0.02 0.02 0.03 0.03 0.04 0.04 0.03 0.02 0.01 0.01 0.00 0.00 0.00 0.01 0.01 0.01 0.01 0.02 0.01 0.01 0.01 0.00 0.00 0.01 0.01 0.04 0.08 0.11 0.15 0.16 0.17 0.21 0.31 0.37 0.30
0.00 0.00 0.01 0.00 0.00 0.00 0.00 0.01 0.02 0.02 0.02 0.02 0.03 0.03 0.02 0.02 0.01 0.00 0.00 0.00 0.00 0.01 0.01 0.01 0.01 0.01 0.01 0.00 0.00 0.00 0.00 0.01 0.04 0.07 0.12 0.21 0.17 0.20 0.16 0.16 0.20 0.18 0.15
0.00 0.00 0.00 0.01 0.00 0.00 0.00 0.01 0.01 0.01 0.01 0.01 0.02 0.01 0.01 0.01 0.00 0.00 0.00 0.00 0.01 0.01 0.01 0.02 0.02 0.02 0.01 0.00 0.00 0.01 0.01 0.02 0.04 0.06 0.22 0.24 0.19 0.13 0.12 0.09 0.09 0.08 0.07
0.00 0.00 0.01 0.01 0.01 0.00 0.01 0.01 0.01 0.02 0.02 0.02 0.02 0.02 0.01 0.01 0.01 0.01 0.01 0.01 0.02 0.03 0.03 0.03 0.03 0.03 0.02 0.01 0.01 0.01 0.02 0.03 0.05 0.05 0.15 0.25 0.42 0.22 0.12 0.09 0.09 0.07 0.04
0.00 0.00 0.01 0.01 0.01 0.01 0.01 0.02 0.02 0.02 0.03 0.03 0.02 0.02 0.02 0.02 0.02 0.02 0.02 0.02 0.04 0.06 0.06 0.07 0.07 0.05 0.03 0.01 0.01 0.01 0.02 0.04 0.06 0.07 0.11 0.18 0.29 0.21 0.13 0.12 0.10 0.10 0.06
0.00 0.00 0.01 0.02 0.02 0.01 0.02 0.03 0.03 0.04 0.04 0.04 0.03 0.03 0.03 0.03 0.03 0.04 0.03 0.03 0.04 0.06 0.07 0.08 0.09 0.07 0.04 0.02 0.01 0.01 0.01 0.04 0.07 0.12 0.13 0.12 0.15 0.17 0.14 0.14 0.15 0.13 0.08
0.00 0.01 0.02 0.03 0.03 0.02 0.03 0.04 0.04 0.05 0.05 0.06 0.06 0.05 0.05 0.05 0.05 0.06 0.06 0.05 0.04 0.06 0.07 0.08 0.10 0.09 0.07 0.04 0.02 0.01 0.03 0.06 0.08 0.09 0.13 0.17 0.13 0.20 0.22 0.17 0.15 0.14 0.11
0.01 0.01 0.03 0.04 0.05 0.05 0.05 0.06 0.06 0.07 0.07 0.07 0.07 0.06 0.05 0.05 0.06 0.07 0.08 0.07 0.06 0.07 0.08 0.09 0.10 0.12 0.11 0.08 0.06 0.03 0.04 0.09 0.10 0.13 0.12 0.20 0.17 0.29 0.49 0.38 0.21 0.13 0.12
0.03 0.02 0.03 0.06 0.09 0.09 0.09 0.09 0.09 0.10 0.09 0.09 0.08 0.07 0.07 0.07 0.07 0.09 0.08 0.07 0.08 0.10 0.12 0.16 0.17 0.19 0.19 0.18 0.16 0.14 0.13 0.13 0.11 0.14 0.14 0.15 0.19 0.36 0.62 0.72 0.57 0.38 0.21
0.05 0.06 0.06 0.08 0.10 0.13 0.13 0.15 0.19 0.20 0.22 0.22 0.19 0.15 0.13 0.12 0.11 0.11 0.09 0.10 0.15 0.23 0.30 0.36 0.38 0.43 0.43 0.33 0.32 0.36 0.32 0.20 0.19 0.20 0.20 0.19 0.30 0.50 0.77 0.97 0.87 0.75 0.59
0.12 0.12 0.13 0.14 0.17 0.19 0.21 0.38 0.46 0.44 0.51 0.46 0.45 0.40 0.34 0.31 0.25 0.17 0.19 0.30 0.43 0.60 0.70 0.76 0.88 0.96 0.87 0.63 0.65 0.64 0.33 0.23 0.25 0.19 0.18 0.25 0.37 0.53 0.78 1.07 1.05 0.90 0.78
0.24 0.20 0.20 0.24 0.25 0.28 0.36 0.54 0.64 0.64 0.69 0.69 0.73 0.78 0.82 0.81 0.64 0.54 0.60 0.81 0.93 1.08 1.08 1.21 1.45 1.21 1.10 1.07 1.06 0.92 0.67 0.49 0.28 0.16 0.13 0.29 0.45 0.59 0.81 1.02 1.05 0.96 0.86
0.34 0.37 0.43 0.48 0.47 0.49 0.59 0.61 0.61 0.58 0.66 0.74 0.87 1.03 1.12 1.06 1.05 0.99 0.99 1.09 1.18 1.27 1.38 1.47 1.49 1.43 1.52 1.52 1.31 1.15 0.98 0.75 0.52 0.46 0.39 0.47 0.63 0.77 0.91 1.00 0.99 0.94 0.91
0.63 0.71 0.74 0.76 0.72 0.64 0.54 0.51 0.50 0.53 0.57 0.68 0.79 0.86 0.96 1.15 1.27 1.24 1.07 1.03 1.05 1.20 1.43 1.67 1.73 1.92 1.97 1.74 1.37 1.17 1.11 0.99 0.82 0.68 0.58 0.72 1.01 0.99 0.91 0.92 0.92 0.93 0.95
1.06 1.10 1.10 1.02 0.86 0.78 0.69 0.59 0.59 0.57 0.60 0.61 0.63 0.73 0.91 1.03 1.18 1.14 1.11 1.14 1.15 1.12 1.21 1.54 1.73 1.89 1.80 1.55 1.18 1.01 0.98 0.98 0.86 0.78 0.63 0.68 0.90 0.84 0.75 0.83 0.92 1.00 1.04
1.82 1.61 1.28 1.08 0.94 0.85 0.84 0.80 0.72 0.66 0.61 0.61 0.61 0.67 0.77 0.83 0.94 0.98 0.96 0.94 0.98 0.99 0.98 1.09 1.25 1.37 1.29 1.15 1.02 1.01 0.98 0.94 0.84 0.78 0.72 0.66 0.68 0.77 0.71 0.69 0.75 0.85 0.98
2.55 2.19 1.62 1.40 1.41 1.28 1.14 0.88 0.70 0.62 0.56 0.50 0.48 0.49 0.53 0.55 0.57 0.59 0.59 0.56 0.58 0.58 0.61 0.69 0.77 0.84 0.88 0.93 0.97 0.97 0.92 0.92 0.83 0.84 0.78 0.69 0.67 0.66 0.74 0.72 0.70 0.72 0.79
2.95 2.81 2.24 2.07 2.10 1.59 0.99 0.67 0.53 0.47 0.38 0.35 0.37 0.35 0.37 0.39 0.40 0.43 0.41 0.40 0.38 0.36 0.37 0.39 0.46 0.56 0.63 0.69 0.70 0.69 0.67 0.62 0.58 0.58 0.61 0.51 0.49 0.47 0.53 0.63 0.68 0.67 0.73
2.08 2.01 1.88 1.88 1.53 1.02 0.60 0.41 0.30 0.27 0.23 0.21 0.25 0.27 0.28 0.31 0.33 0.36 0.34 0.32 0.29 0.27 0.28 0.33 0.37 0.40 0.41 0.45 0.40 0.38 0.42 0.36 0.33 0.30 0.29 0.29 0.30 0.29 0.33 0.45 0.49 0.47 0.57
0.83 0.85 0.96 0.93 0.82 0.52 0.36 0.23 0.16 0.14 0.13 0.13 0.16 0.16 0.19 0.23 0.28 0.34 0.29 0.31 0.29 0.23 0.23 0.26 0.29 0.29 0.27 0.28 0.28 0.23 0.19 0.18 0.18 0.15 0.14 0.17 0.21 0.24 0.27 0.37 0.39 0.35 0.34
0.38 0.44 0.47 0.48 0.40 0.24 0.17 0.15 0.13 0.11 0.08 0.07 0.07 0.09 0.09 0.12 0.17 0.23 0.30 0.25 0.25 0.25 0.25 0.24 0.25 0.23 0.21 0.24 0.27 0.24 0.16 0.13 0.14 0.10 0.14 0.14 0.16 0.26 0.32 0.34 0.31 0.29 0.28
0.45 0.40 0.24 0.25 0.19 0.12 0.10 0.10 0.09 0.09 0.09 0.09 0.07 0.07 0.08 0.07 0.09 0.14 0.21 0.24 0.27 0.24 0.27 0.31 0.29 0.25 0.19 0.19 0.24 0.28 0.20 0.13 0.13 0.13 0.16 0.16 0.17 0.25 0.30 0.35 0.33 0.31 0.32
0.26 0.26 0.20 0.19 0.18 0.11 0.08 0.07 0.06 0.06 0.07 0.07 0.07 0.06 0.07 0.06 0.07 0.08 0.10 0.15 0.22 0.26 0.33 0.25 0.28 0.29 0.24 0.18 0.19 0.21 0.20 0.19 0.19 0.17 0.19 0.18 0.20 0.23 0.23 0.24 0.28 0.31 0.32
0.05 0.11 0.15 0.21 0.26 0.18 0.13 0.09 0.08 0.06 0.06 0.06 0.06 0.07 0.08 0.10 0.11 0.12 0.12 0.11 0.12 0.19 0.26 0.29 0.35 0.31 0.31 0.26 0.20 0.18 0.19 0.17 0.17 0.15 0.15 0.18 0.18 0.14 0.13 0.17 0.22 0.31 0.27
0.04 0.06 0.09 0.15 0.21 0.17 0.14 0.13 0.14 0.14 0.13 0.11 0.11 0.11 0.14 0.17 0.19 0.19 0.20 0.20 0.19 0.17 0.17 0.19 0.23 0.30 0.34 0.34 0.26 0.20 0.22 0.20 0.15 0.13 0.09 0.10 0.16 0.12 0.12 0.13 0.20 0.28 0.28

GEFSSE_prec_meanprecacc_048.txt.gz
Total_Precipitation_Accumulation
0.00 0.00 0.01 0.00 0.00 0.00 0.01 0.03 0.06 0.07 0.08 0.10 0.11 0.09 0.06 0.04 0.02 0.01 0.00 0.00 0.00 0.00 0.00 0.01 0.02 0.02 0.03 0.03 0.03 0.03 0.03 0.02 0.01 0.02 0.05 0.08 0.10 0.13 0.23 0.32 0.49 0.52 0.47
0.00 0.00 0.01 0.00 0.00 0.00 0.01 0.03 0.06 0.07 0.09 0.10 0.10 0.10 0.08 0.05 0.03 0.01 0.01 0.00 0.00 0.01 0.01 0.01 0.01 0.02 0.02 0.01 0.01 0.01 0.01 0.01 0.02 0.05 0.10 0.14 0.17 0.22 0.28 0.33 0.51 0.49 0.34
0.00 0.00 0.01 0.00 0.00 0.00 0.01 0.02 0.05 0.06 0.08 0.08 0.08 0.08 0.07 0.05 0.02 0.01 0.00 0.00 0.00 0.01 0.01 0.01 0.01 0.01 0.01 0.01 0.00 0.00 0.00 0.01 0.04 0.10 0.25 0.40 0.24 0.25 0.31 0.40 0.47 0.29 0.17
0.00 0.00 0.00 0.01 0.00 0.00 0.01 0.02 0.03 0.04 0.05 0.06 0.06 0.06 0.05 0.03 0.01 0.01 0.01 0.01 0.01 0.02 0.02 0.02 0.02 0.02 0.01 0.00 0.00 0.01 0.01 0.02 0.06 0.11 0.47 0.45 0.30 0.17 0.22 0.26 0.26 0.18 0.12
0.00 0.00 0.01 0.01 0.01 0.01 0.01 0.02 0.03 0.04 0.04 0.05 0.05 0.04 0.04 0.02 0.01 0.01 0.01 0.01 0.02 0.04 0.04 0.04 0.04 0.03 0.02 0.01 0.01 0.01 0.02 0.04 0.07 0.14 0.30 0.44 0.57 0.28 0.20 0.20 0.20 0.15 0.08
0.00 0.00 0.01 0.01 0.01 0.01 0.02 0.02 0.02 0.04 0.04 0.05 0.04 0.04 0.04 0.03 0.03 0.02 0.02 0.02 0.04 0.07 0.08 0.08 0.08 0.06 0.03 0.01 0.01 0.01 0.02 0.04 0.10 0.14 0.17 0.30 0.40 0.25 0.20 0.22 0.21 0.17 0.09
0.00 0.00 0.01 0.02 0.02 0.02 0.03 0.04 0.04 0.05 0.05 0.05 0.05 0.05 0.05 0.04 0.04 0.04 0.04 0.04 0.05 0.07 0.08 0.09 0.10 0.08 0.05 0.02 0.01 0.01 0.02 0.04 0.12 0.17 0.16 0.20 0.24 0.19 0.19 0.23 0.25 0.22 0.14
0.00 0.01 0.02 0.03 0.04 0.03 0.04 0.05 0.06 0.06 0.07 0.08 0.08 0.07 0.06 0.06 0.07 0.07 0.07 0.06 0.06 0.07 0.08 0.09 0.10 0.10 0.08 0.05 0.02 0.01 0.03 0.06 0.10 0.11 0.16 0.25 0.17 0.21 0.24 0.21 0.22 0.25 0.22
0.01 0.02 0.04 0.06 0.06 0.06 0.07 0.08 0.08 0.09 0.09 0.10 0.10 0.08 0.07 0.07 0.08 0.09 0.10 0.09 0.09 0.10 0.10 0.10 0.11 0.13 0.13 0.10 0.07 0.04 0.04 0.09 0.13 0.15 0.15 0.28 0.20 0.29 0.50 0.41 0.26 0.22 0.25
0.03 0.03 0.04 0.09 0.12 0.12 0.11 0.11 0.11 0.12 0.12 0.12 0.11 0.10 0.09 0.09 0.11 0.14 0.13 0.12 0.12 0.13 0.16 0.19 0.19 0.21 0.22 0.20 0.18 0.15 0.14 0.13 0.12 0.16 0.19 0.26 0.25 0.38 0.64 0.74 0.58 0.42 0.31
0.06 0.06 0.07 0.10 0.13 0.15 0.17 0.19 0.23 0.24 0.27 0.27 0.28 0.25 0.20 0.20 0.27 0.35 0.28 0.23 0.23 0.29 0.35 0.42 0.44 0.48 0.47 0.36 0.34 0.38 0.33 0.20 0.19 0.23 0.30 0.34 0.38 0.54 0.80 1.02 0.90 0.78 0.63
0.12 0.13 0.14 0.16 0.20 0.22 0.25 0.44 0.54 0.55 0.67 0.60 0.66 0.61 0.57 0.56 0.46 0.34 0.38 0.44 0.53 0.67 0.76 0.84 0.97 1.02 0.92 0.68 0.73 0.70 0.34 0.23 0.25 0.21 0.29 0.36 0.43 0.58 0.83 1.13 1.11 0.94 0.82
0.25 0.22 0.21 0.26 0.28 0.32 0.41 0.62 0.74 0.79 0.87 0.86 0.91 0.98 1.06 1.05 0.86 0.72 0.83 1.01 1.09 1.21 1.22 1.38 1.57 1.31 1.22 1.20 1.22 1.03 0.71 0.50 0.29 0.17 0.20 0.38 0.50 0.63 0.86 1.08 1.12 1.04 0.91
0.36 0.40 0.46 0.51 0.52 0.55 0.67 0.72 0.77 0.73 0.78 0.87 0.99 1.15 1.30 1.27 1.27 1.21 1.23 1.30 1.40 1.51 1.61 1.72 1.74 1.65 1.75 1.71 1.45 1.27 1.06 0.79 0.54 0.47 0.46 0.55 0.67 0.80 0.94 1.03 1.04 1.01 0.99
0.68 0.77 0.79 0.80 0.77 0.70 0.64 0.62 0.61 0.61 0.63 0.74 0.84 0.92 1.04 1.25 1.38 1.37 1.22 1.19 1.22 1.41 1.65 1.89 1.93 2.13 2.18 1.93 1.52 1.31 1.23 1.08 0.88 0.72 0.64 0.79 1.03 1.01 0.92 0.93 0.94 0.98 1.02
1.15 1.18 1.16 1.07 0.91 0.84 0.76 0.66 0.64 0.60 0.64 0.66 0.68 0.78 0.95 1.08 1.23 1.20 1.19 1.23 1.24 1.23 1.34 1.69 1.89 2.06 1.98 1.73 1.32 1.15 1.08 1.08 0.94 0.83 0.67 0.74 0.93 0.85 0.77 0.85 0.93 1.02 1.07
1.96 1.71 1.35 1.15 0.99 0.89 0.88 0.84 0.76 0.68 0.63 0.64 0.62 0.69 0.78 0.85 0.96 1.00 0.99 0.98 1.02 1.03 1.05 1.18 1.34 1.48 1.40 1.27 1.13 1.13 1.08 1.03 0.90 0.84 0.77 0.74 0.74 0.80 0.72 0.70 0.76 0.86 1.00
2.67 2.28 1.68 1.43 1.43 1.30 1.16 0.90 0.70 0.63 0.56 0.50 0.48 0.49 0.53 0.55 0.58 0.60 0.60 0.58 0.61 0.60 0.64 0.73 0.82 0.90 0.96 1.02 1.07 1.06 1.01 0.99 0.89 0.89 0.83 0.74 0.72 0.68 0.77 0.73 0.71 0.73 0.80
3.03 2.87 2.28 2.10 2.12 1.60 0.99 0.68 0.53 0.47 0.38 0.35 0.37 0.35 0.37 0.39 0.40 0.43 0.42 0.41 0.40 0.38 0.38 0.40 0.49 0.59 0.66 0.74 0.74 0.74 0.73 0.67 0.62 0.62 0.65 0.54 0.53 0.50 0.57 0.66 0.70 0.68 0.74
2.15 2.06 1.91 1.90 1.54 1.02 0.60 0.41 0.30 0.27 0.23 0.21 0.25 0.27 0.28 0.31 0.33 0.36 0.34 0.33 0.29 0.27 0.29 0.33 0.38 0.41 0.42 0.46 0.41 0.41 0.46 0.39 0.36 0.32 0.30 0.31 0.32 0.31 0.36 0.49 0.53 0.49 0.59
0.86 0.87 0.98 0.93 0.83 0.52 0.36 0.23 0.16 0.14 0.13 0.13 0.16 0.16 0.19 0.23 0.28 0.34 0.29 0.32 0.29 0.24 0.24 0.26 0.29 0.30 0.28 0.29 0.28 0.24 0.20 0.20 0.20 0.16 0.15 0.19 0.23 0.27 0.31 0.42 0.44 0.39 0.37
0.39 0.45 0.47 0.49 0.41 0.25 0.17 0.15 0.13 0.11 0.08 0.07 0.07 0.09 0.09 0.12 0.17 0.23 0.30 0.25 0.25 0.25 0.25 0.24 0.26 0.25 0.22 0.24 0.27 0.24 0.16 0.14 0.16 0.11 0.18 0.19 0.20 0.31 0.38 0.41 0.39 0.38 0.34
0.45 0.40 0.25 0.25 0.20 0.13 0.10 0.10 0.10 0.10 0.10 0.09 0.08 0.07 0.08 0.07 0.09 0.14 0.21 0.24 0.27 0.24 0.27 0.32 0.30 0.27 0.21 0.19 0.24 0.29 0.21 0.14 0.16 0.17 0.21 0.22 0.24 0.33 0.37 0.43 0.42 0.42 0.40
0.26 0.26 0.21 0.20 0.20 0.12 0.09 0.08 0.07 0.07 0.08 0.08 0.07 0.06 0.07 0.06 0.07 0.08 0.10 0.15 0.22 0.26 0.33 0.26 0.29 0.30 0.25 0.18 0.19 0.21 0.20 0.20 0.20 0.20 0.24 0.24 0.28 0.33 0.32 0.30 0.33 0.39 0.42
0.05 0.11 0.15 0.24 0.28 0.20 0.14 0.10 0.09 0.07 0.06 0.06 0.07 0.07 0.08 0.10 0.11 0.12 0.12 0.11 0.12 0.19 0.26 0.29 0.35 0.32 0.32 0.27 0.21 0.19 0.20 0.18 0.18 0.16 0.17 0.22 0.23 0.19 0.20 0.23 0.28 0.38 0.36
0.04 0.06 0.09 0.18 0.25 0.20 0.16 0.14 0.15 0.15 0.13 0.12 0.11 0.11 0.14 0.17 0.19 0.19 0.20 0.20 0.19 0.17 0.17 0.19 0.24 0.30 0.35 0.36 0.28 0.22 0.23 0.21 0.16 0.14 0.10 0.11 0.18 0.14 0.15 0.18 0.25 0.34 0.36

GEFSSE_prec_meanprecacc_054.txt.gz
Total_Precipitation_Accumulation
0.00 0.00 0.02 0.01 0.00 0.01 0.02 0.04 0.07 0.09 0.10 0.12 0.13 0.11 0.08 0.06 0.04 0.02 0.01 0.01 0.00 0.01 0.00 0.01 0.02 0.03 0.04 0.03 0.04 0.04 0.04 0.03 0.03 0.06 0.10 0.13 0.14 0.21 0.36 0.46 0.63 0.63 0.59
0.00 0.00 0.02 0.01 0.01 0.01 0.02 0.04 0.07 0.09 0.10 0.12 0.12 0.12 0.11 0.07 0.04 0.02 0.01 0.01 0.01 0.01 0.01 0.01 0.02 0.02 0.02 0.01 0.01 0.01 0.01 0.02 0.04 0.10 0.15 0.17 0.22 0.30 0.40 0.46 0.60 0.56 0.42
0.00 0.00 0.01 0.01 0.01 0.01 0.01 0.03 0.06 0.08 0.09 0.10 0.10 0.10 0.10 0.06 0.04 0.02 0.01 0.01 0.01 0.01 0.01 0.01 0.01 0.01 0.01 0.01 0.00 0.00 0.01 0.02 0.06 0.14 0.29 0.42 0.27 0.36 0.44 0.52 0.55 0.35 0.22
0.00 0.00 0.00 0.01 0.00 0.01 0.01 0.02 0.04 0.06 0.07 0.07 0.07 0.07 0.07 0.05 0.02 0.01 0.01 0.01 0.01 0.02 0.02 0.02 0.02 0.02 0.01 0.00 0.00 0.01 0.02 0.03 0.08 0.15 0.49 0.47 0.31 0.25 0.32 0.33 0.31 0.23 0.15
0.00 0.00 0.01 0.01 0.01 0.01 0.01 0.02 0.03 0.04 0.05 0.05 0.05 0.05 0.05 0.04 0.02 0.02 0.02 0.02 0.03 0.04 0.04 0.04 0.04 0.03 0.02 0.01 0.01 0.01 0.03 0.05 0.10 0.18 0.34 0.47 0.59 0.31 0.23 0.23 0.24 0.19 0.11
0.00 0.00 0.01 0.01 0.01 0.01 0.02 0.02 0.03 0.04 0.05 0.05 0.05 0.05 0.04 0.04 0.04 0.03 0.03 0.03 0.05 0.08 0.08 0.09 0.08 0.06 0.03 0.01 0.01 0.01 0.02 0.06 0.13 0.18 0.21 0.33 0.42 0.27 0.22 0.24 0.24 0.20 0.11
0.00 0.00 0.01 0.02 0.02 0.02 0.03 0.04 0.04 0.05 0.05 0.06 0.05 0.05 0.05 0.05 0.05 0.05 0.04 0.04 0.05 0.08 0.09 0.10 0.11 0.09 0.05 0.02 0.01 0.01 0.02 0.07 0.16 0.24 0.22 0.23 0.26 0.21 0.20 0.25 0.28 0.24 0.15
0.01 0.01 0.02 0.03 0.04 0.03 0.04 0.05 0.06 0.06 0.07 0.08 0.08 0.08 0.07 0.06 0.07 0.08 0.07 0.07 0.07 0.08 0.09 0.10 0.11 0.11 0.09 0.05 0.02 0.02 0.04 0.08 0.13 0.19 0.24 0.29 0.20 0.23 0.27 0.23 0.24 0.27 0.23
0.02 0.02 0.04 0.06 0.06 0.06 0.07 0.08 0.08 0.09 0.10 0.10 0.11 0.09 0.08 0.07 0.09 0.10 0.11 0.11 0.10 0.11 0.11 0.12 0.13 0.14 0.13 0.10 0.07 0.04 0.06 0.12 0.16 0.22 0.26 0.34 0.25 0.33 0.53 0.42 0.26 0.23 0.26
0.04 0.03 0.05 0.09 0.12 0.12 0.12 0.11 0.12 0.12 0.13 0.12 0.12 0.11 0.10 0.10 0.13 0.18 0.17 0.16 0.16 0.17 0.19 0.22 0.22 0.24 0.24 0.21 0.19 0.16 0.16 0.15 0.15 0.22 0.31 0.38 0.33 0.43 0.67 0.77 0.60 0.43 0.33
0.07 0.07 0.08 0.11 0.13 0.16 0.18 0.19 0.23 0.25 0.28 0.28 0.30 0.29 0.24 0.23 0.30 0.40 0.35 0.33 0.34 0.37 0.41 0.48 0.49 0.53 0.51 0.39 0.37 0.40 0.35 0.21 0.21 0.29 0.41 0.47 0.48 0.61 0.84 1.04 0.92 0.79 0.65
0.16 0.16 0.16 0.18 0.22 0.25 0.27 0.46 0.56 0.58 0.70 0.62 0.69 0.66 0.62 0.59 0.48 0.36 0.42 0.53 0.63 0.78 0.85 0.92 1.04 1.07 0.96 0.71 0.76 0.75 0.36 0.25 0.27 0.26 0.42 0.50 0.54 0.67 0.89 1.16 1.13 0.96 0.84
0.32 0.27 0.25 0.29 0.32 0.36 0.44 0.66 0.79 0.83 0.91 0.89 0.95 1.02 1.09 1.07 0.88 0.75 0.85 1.05 1.14 1.28 1.27 1.43 1.63 1.36 1.26 1.23 1.24 1.06 0.75 0.54 0.33 0.24 0.29 0.52 0.60 0.73 0.94 1.14 1.15 1.06 0.93
0.43 0.46 0.51 0.56 0.56 0.58 0.70 0.75 0.80 0.76 0.82 0.89 1.02 1.18 1.32 1.29 1.29 1.25 1.26 1.33 1.42 1.54 1.65 1.75 1.77 1.70 1.79 1.75 1.49 1.34 1.14 0.87 0.62 0.58 0.56 0.72 0.83 0.94 1.05 1.11 1.09 1.05 1.01
0.76 0.84 0.86 0.85 0.80 0.73 0.66 0.65 0.64 0.64 0.65 0.76 0.86 0.94 1.05 1.26 1.40 1.40 1.24 1.21 1.23 1.43 1.68 1.93 1.96 2.15 2.20 1.95 1.55 1.37 1.31 1.19 1.00 0.85 0.75 0.94 1.17 1.14 1.05 1.03 1.01 1.02 1.06
1.26 1.27 1.23 1.10 0.93 0.86 0.78 0.68 0.66 0.62 0.65 0.69 0.71 0.79 0.96 1.09 1.25 1.21 1.20 1.24 1.26 1.25 1.36 1.71 1.91 2.08 1.99 1.74 1.33 1.18 1.13 1.15 1.03 0.93 0.78 0.86 1.06 0.97 0.89 0.95 1.02 1.09 1.13
2.05 1.79 1.42 1.18 1.00 0.90 0.89 0.84 0.77 0.69 0.64 0.66 0.63 0.69 0.79 0.86 0.97 1.01 1.00 0.99 1.04 1.05 1.07 1.19 1.35 1.49 1.41 1.28 1.14 1.15 1.10 1.04 0.93 0.89 0.85 0.83 0.81 0.90 0.83 0.80 0.86 0.94 1.07
2.71 2.32 1.71 1.46 1.44 1.31 1.17 0.90 0.71 0.64 0.57 0.50 0.48 0.49 0.53 0.55 0.58 0.61 0.60 0.58 0.62 0.61 0.65 0.73 0.82 0.91 0.96 1.03 1.08 1.07 1.02 1.00 0.91 0.92 0.86 0.80 0.78 0.73 0.83 0.83 0.80 0.82 0.89
3.06 2.90 2.30 2.11 2.13 1.61 1.00 0.68 0.54 0.47 0.39 0.35 0.37 0.35 0.37 0.39 0.40 0.43 0.42 0.41 0.40 0.38 0.39 0.40 0.49 0.59 0.67 0.74 0.74 0.75 0.73 0.67 0.63 0.63 0.65 0.56 0.57 0.53 0.60 0.72 0.79 0.77 0.82
2.18 2.08 1.93 1.91 1.55 1.03 0.60 0.42 0.31 0.27 0.23 0.21 0.25 0.27 0.28 0.31 0.33 0.36 0.34 0.33 0.29 0.27 0.29 0.34 0.38 0.41 0.42 0.46 0.41 0.41 0.46 0.39 0.37 0.32 0.31 0.32 0.34 0.33 0.38 0.51 0.57 0.54 0.66
0.88 0.88 0.99 0.94 0.83 0.52 0.36 0.23 0.16 0.14 0.13 0.13 0.16 0.16 0.19 0.23 0.28 0.34 0.29 0.32 0.29 0.24 0.24 0.26 0.29 0.30 0.28 0.29 0.28 0.24 0.20 0.20 0.20 0.16 0.16 0.20 0.25 0.30 0.36 0.47 0.48 0.43 0.42
0.40 0.46 0.48 0.49 0.41 0.25 0.17 0.15 0.13 0.11 0.08 0.07 0.07 0.09 0.09 0.12 0.17 0.23 0.30 0.25 0.25 0.25 0.25 0.24 0.26 0.25 0.22 0.24 0.28 0.24 0.16 0.14 0.16 0.11 0.19 0.22 0.25 0.38 0.45 0.48 0.47 0.45 0.41
0.46 0.40 0.25 0.25 0.20 0.13 0.11 0.10 0.10 0.10 0.10 0.09 0.08 0.07 0.08 0.07 0.09 0.14 0.21 0.24 0.27 0.24 0.27 0.32 0.30 0.27 0.21 0.19 0.24 0.29 0.21 0.14 0.16 0.18 0.22 0.24 0.29 0.40 0.46 0.51 0.52 0.53 0.50
0.26 0.26 0.21 0.20 0.20 0.12 0.09 0.08 0.08 0.07 0.08 0.08 0.07 0.06 0.07 0.06 0.07 0.08 0.10 0.15 0.22 0.26 0.33 0.26 0.29 0.30 0.25 0.19 0.19 0.21 0.20 0.20 0.20 0.20 0.24 0.24 0.29 0.36 0.37 0.37 0.40 0.47 0.48
0.05 0.11 0.16 0.25 0.29 0.20 0.14 0.10 0.09 0.07 0.06 0.07 0.07 0.07 0.08 0.10 0.11 0.12 0.12 0.11 0.12 0.19 0.26 0.29 0.35 0.32 0.32 0.27 0.22 0.19 0.20 0.18 0.18 0.16 0.17 0.22 0.23 0.19 0.21 0.26 0.32 0.43 0.42
0.04 0.06 0.09 0.19 0.26 0.21 0.16 0.14 0.15 0.15 0.13 0.12 0.11 0.11 0.14 0.17 0.19 0.19 0.20 0.20 0.19 0.17 0.17 0.19 0.24 0.30 0.35 0.36 0.28 0.22 0.24 0.21 0.16 0.14 0.10 0.11 0.18 0.14 0.15 0.18 0.26 0.36 0.39

GEFSSE_prec_meanprecacc_060.txt.gz
Total_Precipitation_Accumulation
0.02 0.04 0.08 0.07 0.02 0.01 0.02 0.04 0.08 0.09 0.10 0.12 0.13 0.12 0.09 0.06 0.04 0.02 0.02 0.01 0.01 0.01 0.01 0.02 0.03 0.03 0.04 0.04 0.04 0.04 0.04 0.04 0.04 0.07 0.12 0.15 0.17 0.30 0.49 0.60 0.73 0.71 0.67
0.00 0.02 0.07 0.08 0.04 0.02 0.03 0.05 0.08 0.09 0.11 0.12 0.13 0.13 0.11 0.08 0.04 0.02 0.01 0.01 0.01 0.01 0.01 0.02 0.02 0.02 0.02 0.02 0.01 0.01 0.02 0.03 0.06 0.13 0.18 0.19 0.31 0.47 0.57 0.59 0.70 0.64 0.50
0.00 0.01 0.05 0.07 0.05 0.03 0.03 0.05 0.08 0.09 0.11 0.10 0.10 0.11 0.10 0.07 0.04 0.02 0.01 0.01 0.01 0.01 0.01 0.01 0.01 0.01 0.01 0.01 0.01 0.01 0.02 0.04 0.10 0.17 0.32 0.44 0.35 0.54 0.61 0.65 0.66 0.46 0.30
0.00 0.01 0.01 0.05 0.05 0.03 0.03 0.04 0.06 0.07 0.07 0.08 0.08 0.07 0.07 0.05 0.03 0.02 0.02 0.01 0.02 0.02 0.02 0.02 0.02 0.02 0.01 0.01 0.01 0.02 0.04 0.06 0.10 0.17 0.50 0.49 0.35 0.36 0.44 0.43 0.40 0.29 0.18
0.01 0.01 0.02 0.04 0.04 0.04 0.04 0.03 0.04 0.05 0.06 0.06 0.06 0.06 0.05 0.04 0.03 0.02 0.02 0.02 0.03 0.04 0.04 0.04 0.04 0.03 0.02 0.01 0.01 0.02 0.04 0.08 0.13 0.19 0.35 0.48 0.63 0.40 0.30 0.29 0.28 0.21 0.12
0.01 0.01 0.03 0.04 0.04 0.04 0.03 0.03 0.03 0.05 0.06 0.06 0.06 0.06 0.05 0.04 0.04 0.03 0.03 0.03 0.05 0.08 0.08 0.09 0.08 0.06 0.03 0.01 0.01 0.01 0.04 0.08 0.15 0.18 0.22 0.34 0.46 0.34 0.28 0.28 0.26 0.21 0.12
0.01 0.02 0.03 0.05 0.05 0.04 0.04 0.05 0.05 0.05 0.06 0.07 0.07 0.07 0.07 0.06 0.06 0.05 0.05 0.05 0.06 0.08 0.09 0.10 0.11 0.09 0.05 0.02 0.01 0.01 0.03 0.08 0.16 0.24 0.22 0.24 0.29 0.27 0.26 0.29 0.31 0.26 0.16
0.02 0.02 0.04 0.06 0.06 0.05 0.05 0.06 0.07 0.06 0.08 0.09 0.09 0.09 0.08 0.08 0.08 0.10 0.09 0.08 0.08 0.09 0.10 0.11 0.12 0.12 0.09 0.05 0.03 0.02 0.05 0.08 0.14 0.20 0.24 0.29 0.23 0.29 0.33 0.27 0.27 0.28 0.24
0.04 0.04 0.06 0.08 0.08 0.08 0.08 0.09 0.10 0.10 0.11 0.11 0.12 0.11 0.09 0.09 0.11 0.13 0.15 0.14 0.13 0.13 0.13 0.15 0.16 0.16 0.15 0.12 0.08 0.05 0.07 0.13 0.17 0.23 0.27 0.35 0.28 0.38 0.57 0.46 0.29 0.24 0.27
0.07 0.05 0.06 0.10 0.13 0.13 0.13 0.14 0.14 0.14 0.14 0.14 0.15 0.15 0.14 0.14 0.16 0.22 0.23 0.22 0.23 0.24 0.25 0.27 0.27 0.30 0.29 0.25 0.22 0.19 0.17 0.16 0.16 0.23 0.32 0.40 0.37 0.49 0.72 0.80 0.63 0.45 0.34
0.11 0.11 0.11 0.13 0.15 0.18 0.20 0.21 0.26 0.27 0.30 0.32 0.35 0.35 0.30 0.26 0.32 0.44 0.42 0.42 0.45 0.49 0.53 0.59 0.59 0.62 0.61 0.47 0.43 0.45 0.38 0.22 0.22 0.31 0.44 0.50 0.52 0.68 0.92 1.09 0.96 0.82 0.68
0.22 0.20 0.20 0.20 0.24 0.27 0.28 0.48 0.58 0.59 0.71 0.65 0.72 0.69 0.65 0.63 0.51 0.39 0.48 0.62 0.75 0.91 1.00 1.09 1.18 1.19 1.05 0.78 0.82 0.81 0.39 0.27 0.28 0.27 0.44 0.53 0.59 0.75 0.99 1.23 1.19 1.01 0.87
0.45 0.34 0.29 0.34 0.35 0.38 0.46 0.68 0.81 0.85 0.94 0.92 0.97 1.04 1.11 1.09 0.90 0.77 0.88 1.09 1.19 1.33 1.32 1.51 1.72 1.42 1.32 1.27 1.27 1.09 0.77 0.57 0.35 0.26 0.31 0.55 0.65 0.79 1.05 1.24 1.23 1.12 0.99
0.64 0.61 0.61 0.65 0.64 0.65 0.75 0.79 0.83 0.80 0.86 0.92 1.04 1.19 1.32 1.29 1.30 1.26 1.27 1.34 1.43 1.56 1.66 1.77 1.80 1.73 1.84 1.79 1.53 1.38 1.19 0.91 0.65 0.60 0.58 0.76 0.89 1.03 1.17 1.23 1.19 1.12 1.09
1.01 1.02 0.99 0.95 0.88 0.80 0.72 0.70 0.68 0.67 0.68 0.78 0.88 0.95 1.06 1.27 1.41 1.41 1.25 1.21 1.24 1.44 1.70 1.95 1.97 2.17 2.22 1.99 1.59 1.42 1.38 1.27 1.06 0.89 0.79 1.00 1.26 1.24 1.17 1.15 1.13 1.12 1.15
1.49 1.43 1.36 1.20 1.01 0.92 0.83 0.73 0.70 0.64 0.67 0.70 0.71 0.80 0.96 1.10 1.26 1.21 1.20 1.24 1.26 1.27 1.38 1.71 1.91 2.09 2.00 1.76 1.36 1.22 1.17 1.20 1.09 0.99 0.84 0.92 1.14 1.06 1.00 1.08 1.17 1.23 1.26
2.24 1.94 1.54 1.28 1.08 0.95 0.94 0.87 0.78 0.70 0.66 0.67 0.64 0.70 0.79 0.86 0.97 1.01 1.00 0.99 1.04 1.05 1.07 1.20 1.36 1.50 1.42 1.29 1.16 1.17 1.12 1.08 0.97 0.95 0.92 0.88 0.86 0.97 0.93 0.93 0.98 1.07 1.20
2.90 2.47 1.83 1.54 1.50 1.36 1.20 0.92 0.73 0.65 0.58 0.51 0.48 0.50 0.53 0.55 0.58 0.61 0.60 0.58 0.62 0.61 0.65 0.74 0.83 0.91 0.96 1.03 1.08 1.07 1.02 1.01 0.92 0.94 0.89 0.83 0.80 0.75 0.89 0.92 0.89 0.90 1.01
3.28 3.05 2.40 2.18 2.17 1.63 1.02 0.70 0.55 0.48 0.39 0.35 0.37 0.35 0.37 0.39 0.40 0.43 0.42 0.41 0.40 0.38 0.39 0.41 0.49 0.59 0.67 0.74 0.74 0.75 0.73 0.68 0.64 0.63 0.66 0.58 0.60 0.56 0.63 0.76 0.88 0.86 0.92
2.43 2.23 2.02 1.96 1.58 1.05 0.62 0.43 0.31 0.27 0.23 0.21 0.25 0.27 0.28 0.31 0.33 0.36 0.34 0.33 0.29 0.27 0.29 0.34 0.38 0.41 0.42 0.46 0.41 0.41 0.46 0.39 0.37 0.32 0.31 0.32 0.35 0.35 0.41 0.55 0.62 0.60 0.75
1.06 0.98 1.04 0.98 0.85 0.54 0.37 0.24 0.17 0.14 0.13 0.13 0.16 0.16 0.19 0.23 0.28 0.34 0.29 0.32 0.29 0.24 0.24 0.26 0.29 0.30 0.28 0.29 0.28 0.24 0.20 0.20 0.20 0.16 0.16 0.20 0.25 0.31 0.37 0.49 0.51 0.46 0.47
0.51 0.52 0.51 0.51 0.42 0.25 0.18 0.15 0.13 0.11 0.08 0.07 0.07 0.09 0.09 0.12 0.17 0.23 0.30 0.25 0.25 0.25 0.25 0.24 0.26 0.25 0.22 0.24 0.28 0.24 0.16 0.14 0.16 0.11 0.19 0.22 0.25 0.38 0.46 0.49 0.49 0.48 0.44
0.52 0.43 0.27 0.26 0.21 0.13 0.11 0.10 0.10 0.10 0.10 0.09 0.08 0.07 0.08 0.07 0.09 0.14 0.21 0.24 0.27 0.24 0.27 0.32 0.30 0.27 0.21 0.19 0.24 0.29 0.21 0.14 0.16 0.18 0.22 0.24 0.29 0.41 0.46 0.52 0.53 0.54 0.53
0.30 0.28 0.22 0.21 0.20 0.12 0.09 0.08 0.08 0.07 0.08 0.08 0.07 0.06 0.07 0.06 0.07 0.08 0.10 0.15 0.22 0.26 0.33 0.26 0.29 0.30 0.25 0.19 0.19 0.21 0.20 0.20 0.20 0.20 0.24 0.24 0.29 0.36 0.37 0.37 0.41 0.48 0.50
0.09 0.13 0.16 0.25 0.29 0.20 0.14 0.10 0.09 0.07 0.06 0.07 0.07 0.07 0.08 0.10 0.11 0.12 0.12 0.11 0.12 0.19 0.26 0.29 0.35 0.32 0.32 0.27 0.22 0.19 0.20 0.18 0.18 0.16 0.17 0.22 0.23 0.19 0.21 0.26 0.32 0.43 0.43
0.06 0.07 0.10 0.19 0.26 0.21 0.16 0.14 0.15 0.15 0.13 0.12 0.11 0.11 0.14 0.17 0.19 0.19 0.20 0.20 0.19 0.17 0.17 0.19 0.24 0.30 0.35 0.36 0.28 0.22 0.24 0.21 0.16 0.14 0.10 0.11 0.18 0.14 0.15 0.18 0.26 0.36 0.39

GEFSSE_prec_meanprecacc_066.txt.gz
Total_Precipitation_Accumulation
0.02 0.04 0.09 0.09 0.04 0.03 0.03 0.06 0.09 0.10 0.11 0.13 0.14 0.12 0.09 0.07 0.04 0.03 0.02 0.01 0.01 0.01 0.01 0.02 0.03 0.03 0.04 0.04 0.04 0.04 0.04 0.05 0.05 0.10 0.18 0.24 0.28 0.46 0.70 0.79 0.85 0.79 0.72
0.00 0.02 0.08 0.12 0.09 0.06 0.05 0.06 0.09 0.10 0.12 0.13 0.13 0.13 0.12 0.08 0.05 0.03 0.02 0.01 0.01 0.01 0.02 0.02 0.02 0.02 0.02 0.02 0.02 0.02 0.03 0.04 0.08 0.19 0.27 0.29 0.42 0.62 0.75 0.73 0.82 0.71 0.54
0.00 0.01 0.05 0.11 0.11 0.08 0.07 0.07 0.09 0.10 0.11 0.11 0.11 0.11 0.10 0.07 0.04 0.03 0.02 0.01 0.01 0.02 0.02 0.01 0.02 0.02 0.02 0.01 0.01 0.02 0.03 0.06 0.13 0.25 0.43 0.57 0.43 0.66 0.77 0.78 0.78 0.52 0.33
0.00 0.01 0.02 0.07 0.09 0.08 0.07 0.06 0.07 0.08 0.08 0.08 0.08 0.08 0.08 0.06 0.03 0.02 0.02 0.01 0.02 0.02 0.02 0.02 0.02 0.02 0.01 0.01 0.02 0.03 0.06 0.08 0.14 0.21 0.58 0.56 0.41 0.44 0.54 0.53 0.49 0.35 0.22
0.01 0.01 0.02 0.06 0.07 0.08 0.09 0.08 0.07 0.06 0.06 0.06 0.06 0.06 0.06 0.05 0.03 0.02 0.02 0.02 0.03 0.05 0.05 0.04 0.04 0.04 0.02 0.01 0.02 0.04 0.07 0.10 0.15 0.21 0.39 0.57 0.74 0.48 0.37 0.36 0.35 0.27 0.16
0.01 0.01 0.04 0.07 0.07 0.07 0.07 0.07 0.07 0.07 0.07 0.07 0.07 0.06 0.06 0.05 0.04 0.04 0.04 0.04 0.06 0.09 0.09 0.10 0.09 0.06 0.03 0.02 0.02 0.04 0.06 0.11 0.16 0.19 0.24 0.41 0.54 0.43 0.36 0.35 0.32 0.26 0.16
0.02 0.02 0.04 0.09 0.09 0.08 0.08 0.10 0.09 0.08 0.08 0.08 0.07 0.08 0.07 0.06 0.06 0.06 0.06 0.06 0.07 0.09 0.10 0.11 0.12 0.09 0.05 0.02 0.02 0.03 0.07 0.11 0.18 0.25 0.23 0.29 0.35 0.34 0.37 0.39 0.38 0.30 0.20
0.03 0.03 0.06 0.11 0.13 0.13 0.11 0.12 0.12 0.09 0.09 0.10 0.10 0.10 0.10 0.09 0.10 0.11 0.11 0.10 0.09 0.10 0.11 0.13 0.13 0.12 0.09 0.06 0.03 0.03 0.08 0.12 0.15 0.21 0.25 0.33 0.27 0.35 0.42 0.36 0.34 0.33 0.28
0.05 0.05 0.07 0.10 0.12 0.13 0.16 0.17 0.16 0.14 0.13 0.13 0.14 0.13 0.11 0.11 0.13 0.14 0.17 0.18 0.17 0.16 0.15 0.16 0.17 0.18 0.16 0.12 0.09 0.07 0.10 0.17 0.20 0.25 0.28 0.38 0.31 0.42 0.63 0.52 0.35 0.29 0.31
0.10 0.07 0.08 0.12 0.16 0.16 0.18 0.19 0.19 0.17 0.17 0.17 0.17 0.16 0.15 0.16 0.19 0.25 0.27 0.26 0.26 0.27 0.28 0.30 0.31 0.34 0.34 0.27 0.23 0.20 0.20 0.20 0.20 0.27 0.35 0.43 0.40 0.54 0.78 0.85 0.68 0.50 0.37
0.15 0.15 0.15 0.17 0.18 0.21 0.23 0.24 0.29 0.30 0.33 0.34 0.38 0.37 0.32 0.30 0.38 0.50 0.47 0.47 0.49 0.55 0.61 0.67 0.67 0.69 0.66 0.51 0.46 0.46 0.39 0.25 0.25 0.35 0.49 0.53 0.56 0.76 0.99 1.14 1.02 0.88 0.72
0.25 0.24 0.25 0.25 0.28 0.30 0.32 0.53 0.64 0.63 0.75 0.68 0.76 0.72 0.69 0.68 0.58 0.44 0.53 0.69 0.82 1.03 1.13 1.20 1.26 1.26 1.12 0.86 0.87 0.83 0.41 0.28 0.30 0.30 0.48 0.56 0.64 0.85 1.11 1.33 1.26 1.08 0.94
0.51 0.39 0.33 0.38 0.39 0.41 0.52 0.75 0.87 0.90 0.99 0.96 1.01 1.07 1.15 1.14 0.94 0.81 0.94 1.15 1.28 1.44 1.48 1.68 1.82 1.51 1.43 1.37 1.35 1.14 0.80 0.58 0.37 0.27 0.33 0.58 0.70 0.89 1.20 1.37 1.35 1.24 1.10
0.72 0.67 0.64 0.69 0.68 0.70 0.81 0.85 0.90 0.85 0.90 0.96 1.08 1.22 1.35 1.31 1.32 1.28 1.31 1.38 1.50 1.65 1.81 1.92 1.94 1.87 1.94 1.87 1.59 1.44 1.23 0.94 0.68 0.62 0.63 0.80 0.94 1.11 1.31 1.38 1.32 1.25 1.21
1.08 1.10 1.05 1.00 0.95 0.87 0.79 0.77 0.74 0.71 0.72 0.81 0.91 0.98 1.07 1.28 1.41 1.41 1.26 1.23 1.27 1.49 1.76 2.04 2.08 2.28 2.33 2.07 1.66 1.49 1.45 1.31 1.10 0.93 0.83 1.04 1.29 1.31 1.27 1.29 1.27 1.24 1.27
1.60 1.54 1.46 1.30 1.12 1.03 0.93 0.82 0.76 0.68 0.70 0.73 0.74 0.81 0.97 1.10 1.26 1.22 1.20 1.25 1.28 1.29 1.41 1.76 1.98 2.17 2.08 1.84 1.43 1.29 1.24 1.28 1.17 1.06 0.89 0.96 1.17 1.10 1.06 1.19 1.30 1.38 1.39
2.43 2.08 1.68 1.41 1.20 1.08 1.05 0.95 0.84 0.74 0.69 0.69 0.65 0.70 0.79 0.86 0.97 1.01 1.01 1.00 1.05 1.06 1.09 1.23 1.40 1.55 1.48 1.35 1.23 1.24 1.19 1.14 1.03 1.01 0.96 0.92 0.89 1.00 0.98 1.00 1.06 1.19 1.32
3.13 2.67 1.98 1.68 1.63 1.48 1.31 0.99 0.78 0.69 0.59 0.52 0.49 0.50 0.53 0.56 0.58 0.61 0.61 0.59 0.63 0.62 0.66 0.76 0.85 0.94 1.00 1.07 1.12 1.11 1.06 1.07 0.98 1.00 0.95 0.88 0.83 0.77 0.92 0.97 0.96 0.99 1.10
3.50 3.27 2.58 2.34 2.34 1.76 1.12 0.77 0.60 0.50 0.40 0.36 0.37 0.35 0.37 0.39 0.40 0.44 0.43 0.42 0.40 0.39 0.39 0.41 0.50 0.60 0.68 0.75 0.75 0.76 0.75 0.70 0.66 0.66 0.69 0.61 0.64 0.60 0.67 0.81 0.92 0.92 0.99
2.63 2.44 2.20 2.11 1.73 1.14 0.67 0.47 0.34 0.28 0.24 0.21 0.25 0.27 0.28 0.31 0.33 0.36 0.34 0.33 0.30 0.28 0.29 0.34 0.39 0.42 0.42 0.46 0.42 0.41 0.46 0.40 0.37 0.33 0.32 0.34 0.37 0.38 0.44 0.59 0.67 0.64 0.79
1.28 1.18 1.21 1.10 0.93 0.58 0.39 0.25 0.17 0.15 0.14 0.13 0.16 0.16 0.19 0.23 0.28 0.34 0.29 0.32 0.29 0.24 0.24 0.26 0.30 0.30 0.28 0.29 0.29 0.24 0.20 0.20 0.20 0.16 0.16 0.21 0.27 0.33 0.40 0.53 0.56 0.53 0.53
0.69 0.69 0.64 0.62 0.48 0.29 0.20 0.16 0.14 0.12 0.08 0.07 0.07 0.09 0.09 0.12 0.17 0.23 0.30 0.25 0.25 0.25 0.25 0.24 0.27 0.25 0.22 0.24 0.28 0.24 0.17 0.14 0.16 0.11 0.19 0.22 0.26 0.40 0.48 0.52 0.53 0.54 0.50
0.65 0.57 0.38 0.34 0.26 0.17 0.12 0.11 0.10 0.10 0.10 0.09 0.08 0.07 0.08 0.07 0.09 0.14 0.21 0.24 0.27 0.24 0.27 0.32 0.30 0.27 0.21 0.19 0.24 0.29 0.21 0.14 0.16 0.18 0.22 0.24 0.29 0.41 0.47 0.53 0.54 0.57 0.57
0.39 0.37 0.30 0.27 0.24 0.14 0.10 0.09 0.08 0.07 0.08 0.08 0.07 0.06 0.07 0.06 0.07 0.08 0.10 0.15 0.22 0.26 0.33 0.26 0.29 0.30 0.25 0.19 0.19 0.21 0.20 0.20 0.21 0.20 0.24 0.24 0.29 0.36 0.37 0.37 0.41 0.50 0.53
0.15 0.19 0.22 0.29 0.32 0.21 0.15 0.11 0.10 0.08 0.07 0.07 0.07 0.07 0.08 0.10 0.11 0.12 0.12 0.11 0.12 0.19 0.26 0.29 0.35 0.32 0.32 0.27 0.22 0.19 0.20 0.18 0.18 0.16 0.17 0.22 0.23 0.19 0.21 0.26 0.32 0.44 0.44
0.10 0.11 0.14 0.22 0.28 0.22 0.17 0.14 0.16 0.15 0.13 0.12 0.11 0.11 0.14 0.17 0.19 0.19 0.20 0.20 0.19 0.17 0.17 0.19 0.24 0.30 0.35 0.36 0.28 0.22 0.24 0.21 0.16 0.14 0.10 0.11 0.18 0.14 0.15 0.18 0.26 0.36 0.40